Location: Cheching
(60.0667°N, 164.2167°W)
Time: 12:21:30
(UTC+00:00)

AO-73 - Visible Passes

Search period start: 16 January 2021 00:00
Search period end: 26 January 2021 00:00
Orbit: 582 x 661 km, 97.6° (Epoch: 16 January)

Date Brightness Start Highest point End Pass type
(mag) Time Alt. Az. Time Alt. Az. Time Alt. Az.
16 Jan ? 03:49:01 10° SSW 03:53:12 40° W 03:57:30 10° NNW visible
16 Jan ? 15:26:29 10° NNE 15:30:17 25° E 15:34:04 10° SE visible
16 Jan ? 17:02:20 10° NNE 17:06:55 70° WNW 17:11:26 10° SSW visible
16 Jan ? 18:39:16 10° N 18:42:26 19° NW 18:45:34 10° W visible
17 Jan ? 04:07:21 10° SSW 04:11:16 30° W 04:15:17 10° NNW visible
17 Jan ? 15:44:12 10° NNE 15:48:23 33° E 15:52:30 10° SSE visible
17 Jan ? 17:20:19 10° N 17:24:47 52° WNW 17:29:12 10° SW visible
18 Jan ? 04:25:50 10° SW 04:29:22 23° W 04:32:59 10° NW visible
18 Jan ? 16:02:00 10° NNE 16:06:25 44° E 16:10:46 10° S visible
18 Jan ? 17:38:19 10° N 17:42:36 40° WNW 17:46:51 10° SW visible
19 Jan ? 04:44:33 10° SW 04:47:31 17° W 04:50:31 10° NW visible
19 Jan ? 14:45:08 10° NE 14:47:16 13° E 14:49:23 10° ESE visible
19 Jan ? 16:19:52 10° NNE 16:24:25 60° ESE 16:28:55 10° S visible
19 Jan ? 17:56:22 10° N 18:00:24 31° WNW 18:04:23 10° WSW visible
20 Jan ? 03:24:06 10° S 03:28:33 60° WSW 03:33:05 10° NNW visible
20 Jan ? 05:03:41 10° WSW 05:05:43 13° W 05:07:46 10° NW visible
20 Jan ? 15:02:23 10° NE 15:05:27 17° E 15:08:29 10° SE visible
20 Jan ? 16:37:46 10° NNE 16:42:23 81° ESE 16:46:55 10° SSW visible
20 Jan ? 18:14:27 10° N 18:18:09 25° NW 18:21:49 10° WSW visible
21 Jan ? 03:42:14 10° S 03:46:32 44° W 03:50:56 10° NNW visible
21 Jan ? 15:19:57 10° NE 15:23:36 23° E 15:27:12 10° SE visible
21 Jan ? 16:55:42 10° NNE 17:00:18 76° WNW 17:04:49 10° SSW visible
21 Jan ? 18:32:34 10° N 18:35:52 20° NW 18:39:08 10° W visible
22 Jan ? 04:00:31 10° SSW 04:04:35 33° W 04:08:45 10° NNW visible
22 Jan ? 15:37:39 10° NNE 15:41:42 30° E 15:45:41 10° SSE visible
22 Jan ? 17:13:41 10° N 17:18:11 57° WNW 17:22:36 10° SW visible
23 Jan ? 04:18:56 10° SW 04:22:40 25° W 04:26:28 10° NW visible
23 Jan ? 15:55:25 10° NNE 15:59:45 40° E 16:04:00 10° SSE visible
23 Jan ? 17:31:41 10° N 17:36:01 43° WNW 17:40:17 10° SW visible
24 Jan ? 04:37:35 10° SW 04:40:48 19° W 04:44:04 10° NW visible
24 Jan ? 14:38:54 10° ENE 14:40:31 12° ENE 14:42:07 10° E visible
24 Jan ? 16:13:16 10° NNE 16:17:46 54° E 16:22:11 10° S visible
24 Jan ? 17:49:42 10° N 17:53:49 33° WNW 17:57:51 10° WSW visible
25 Jan ? 04:56:32 10° WSW 04:58:58 14° W 05:01:27 10° NW visible
25 Jan ? 14:55:58 10° NE 14:58:43 16° E 15:01:27 10° ESE visible
25 Jan ? 16:31:09 10° NNE 16:35:44 74° ESE 16:40:13 10° S visible
25 Jan ? 18:07:46 10° N 18:11:34 26° NW 18:15:19 10° WSW visible
